GW1452 Weather Reports


time (UTC)temp
C
wind
direction
speed
KPH
gust
KPH
rain 1hr
cm
rain 24hr
cm
rain mn
cm
humidity
%
barometer
mb
20260906224607 35 136 3.2 14.5 0.00 0.00 0.00 35 1012.4
20260906223110 36 234 3.2 9.7 0.00 0.00 0.00 33 1012.6
20260906221607 35 138 3.2 12.9 0.00 0.00 0.00 33 1012.7
20260906220104 36 182 4.8 14.5 0.00 0.00 0.00 34 1012.8
20260906214617 35 140 3.2 14.5 0.00 0.00 0.00 34 1012.9
20260906213101 35 143 6.4 16.1 0.00 0.00 0.00 35 1013.0
20260906211558 36 148 8.0 14.5 0.00 0.00 0.00 35 1013.3
20260906210113 36 122 4.8 17.7 0.00 0.00 0.00 35 1013.5
20260906204604 36 136 6.4 16.1 0.00 0.00 0.00 37 1013.8
20260906203101 35 105 6.4 12.9 0.00 0.00 0.00 38 1013.8
20260906201637 36 140 4.8 20.9 0.00 0.00 0.00 37 1014.0
20260906200104 35 119 8.0 19.3 0.00 0.00 0.00 37 1014.1
20260906194607 35 138 6.4 17.7 0.00 0.00 0.00 37 1014.1
20260906193111 36 141 3.2 17.7 0.00 0.00 0.00 36 1014.2
20260906191609 35 112 4.8 19.3 0.00 0.00 0.00 39 1014.4
20260906190103 36 180 4.8 12.9 0.00 0.00 0.00 38 1014.6
20260906184602 35 197 1.6 17.7 0.00 0.00 0.00 39 1014.9
20260906183100 35 154 3.2 8.0 0.00 0.00 0.00 42 1015.1
20260906181633 33 138 3.2 11.3 0.00 0.00 0.00 44 1015.4
20260906180107 32 157 3.2 12.9 0.00 0.00 0.00 46 1015.7
20260906174601 33 138 1.6 11.3 0.00 0.00 0.00 44 1015.9
20260906173059 32 171 3.2 8.0 0.00 0.00 0.00 46 1016.0
20260906171602 32 140 3.2 14.5 0.00 0.00 0.00 46 1016.3
20260906164558 33 243 1.6 8.0 0.00 0.00 0.00 45 1016.3
20260906163103 33 176 0.0 4.8 0.00 0.00 0.00 48 1016.4
20260906161609 32 148 1.6 6.4 0.00 0.00 0.00 50 1016.6
20260906154559 31 0 0.0 6.4 0.00 0.00 0.00 56 1016.8
20260906153053 31 0 0.0 6.4 0.00 0.00 0.00 55 1016.6
20260906151601 30 319 0.0 4.8 0.00 0.00 0.00 59 1016.5
20260906150055 29 304 1.6 4.8 0.00 0.00 0.00 61 1016.5
20260906144551 28 312 3.2 6.4 0.00 0.00 0.00 64 1016.5
20260906143101 27 262 0.0 6.4 0.00 0.00 0.00 66 1016.4
20260906141601 26 0 1.6 6.4 0.00 0.00 0.00 68 1016.3
20260906140108 26 259 0.0 3.2 0.00 0.00 0.00 70 1016.4
20260906134616 25 300 1.6 4.8 0.00 0.00 0.00 71 1016.1
20260906133108 24 232 0.0 4.8 0.00 0.00 0.00 74 1015.9
20260906131558 24 0 0.0 3.2 0.00 0.00 0.00 75 1016.0
20260906130109 23 0 0.0 1.6 0.00 0.00 0.00 77 1015.8
20260906124602 22 0 0.0 0.0 0.00 0.00 0.00 78 1015.6
20260906123101 22 0 0.0 0.0 0.00 0.00 0.00 79 1015.4
20260906121607 23 0 0.0 1.6 0.00 0.00 0.00 78 1015.3
20260906120054 22 0 0.0 0.0 0.00 0.00 0.00 78 1015.2
20260906114625 23 0 0.0 1.6 0.00 0.00 0.00 77 1014.9
20260906113113 23 0 0.0 0.0 0.00 0.00 0.00 76 1014.9
20260906111556 23 0 0.0 1.6 0.00 0.00 0.00 76 1014.7
20260906104559 23 0 0.0 0.0 0.00 0.00 0.00 74 1014.6
20260906103053 23 0 0.0 0.0 0.00 0.00 0.00 75 1014.7
20260906101551 23 0 0.0 0.0 0.00 0.00 0.00 75 1014.5
20260906100059 24 0 0.0 3.2 0.00 0.00 0.00 73 1014.5
20260906094558 24 233 0.0 0.0 0.00 0.00 0.00 72 1014.5
20260906093053 25 0 0.0 4.8 0.00 0.00 0.00 71 1014.4
20260906091552 25 0 1.6 6.4 0.00 0.00 0.00 69 1014.2
20260906090111 25 190 0.0 3.2 0.00 0.00 0.00 70 1014.2
20260906084557 25 0 0.0 1.6 0.00 0.00 0.00 70 1014.2
20260906083054 24 0 0.0 0.0 0.00 0.00 0.00 71 1014.1
20260906081555 25 0 0.0 0.0 0.00 0.00 0.00 71 1014.3
20260906080106 25 0 0.0 0.0 0.00 0.00 0.00 71 1014.2
20260906074559 25 0 0.0 0.0 0.00 0.00 0.00 70 1014.3
20260906073054 25 0 0.0 0.0 0.00 0.00 0.00 69 1014.4
20260906071614 25 0 0.0 0.0 0.00 0.00 0.00 68 1014.5
20260906070059 25 0 0.0 0.0 0.00 0.00 0.00 67 1014.8
20260906064555 25 0 0.0 0.0 0.00 0.00 0.00 66 1014.8
20260906063102 26 0 0.0 0.0 0.00 0.00 0.00 65 1014.7
20260906061606 26 0 0.0 0.0 0.00 0.00 0.00 64 1014.9
20260906060150 27 0 0.0 0.0 0.00 0.00 0.00 61 1015.1
20260906054554 27 0 0.0 0.0 0.00 0.00 0.00 60 1015.0
20260906053100 27 0 0.0 4.8 0.00 0.00 0.00 59 1015.0
20260906051553 28 0 0.0 3.2 0.00 0.00 0.00 58 1014.9
20260906050116 28 190 0.0 3.2 0.00 0.00 0.00 57 1015.0
20260906045056 29 0 0.0 1.6 0.00 0.00 0.00 56 949.1
20260906044559 28 190 0.0 4.8 0.00 0.00 0.00 56 1014.9
20260906044035 29 86 0.0 1.6 0.00 0.00 0.00 56 949.0
20260906043100 28 128 0.0 4.8 0.00 0.00 0.00 55 1014.8
20260906043034 29 103 0.0 1.6 0.00 0.00 0.00 55 949.1
20260906042034 30 115 0.0 3.2 0.00 0.00 0.00 54 949.1
20260906041602 28 184 0.0 4.8 0.00 0.00 0.00 54 1014.7
20260906041013 30 122 0.0 1.6 0.00 0.00 0.00 54 948.9
20260906040106 29 151 1.6 8.0 0.00 0.00 0.00 53 1014.6
20260906034606 30 134 1.6 9.7 0.00 0.00 0.00 53 1014.6
20260906033056 30 174 4.8 9.7 0.00 0.00 0.00 51 1014.4
20260906031627 30 146 1.6 8.0 0.00 0.00 0.00 50 1014.0
20260906030106 31 0 1.6 8.0 0.00 0.00 0.00 49 1013.7
20260906024608 31 140 3.2 11.3 0.00 0.00 0.00 49 1013.4
20260906023115 31 143 3.2 12.9 0.00 0.00 0.00 48 1013.0
20260906021601 31 136 4.8 12.9 0.00 0.00 0.00 47 1012.9
20260906020101 32 165 1.6 9.7 0.00 0.00 0.00 43 1012.6
20260906014554 32 136 4.8 11.3 0.00 0.00 0.00 42 1012.5
20260906013101 32 163 3.2 8.0 0.00 0.00 0.00 42 1012.3
20260906011610 32 83 3.2 8.0 0.00 0.00 0.00 43 1012.0
20260906004603 33 132 3.2 9.7 0.00 0.00 0.00 41 1012.0
20260906003105 34 93 3.2 9.7 0.00 0.00 0.00 40 1011.8
20260906001604 35 82 1.6 11.3 0.00 0.00 0.00 39 1011.9
20260906000108 35 139 3.2 11.3 0.00 0.00 0.00 38 1011.9
20260905234556 35 121 3.2 12.9 0.00 0.00 0.00 37 1011.6
20260905233106 35 147 4.8 14.5 0.00 0.00 0.00 36 1011.6
20260905231618 36 140 4.8 12.9 0.00 0.00 0.00 35 1011.5
20260905230104 36 160 6.4 16.1 0.00 0.00 0.00 36 1011.4